Christmas Island, Christmas Island

12:59 AM +07 on April 27, 2017 (GMT +0700)
Christmas Island

Weather History for 96995 - June, 2013

Change the Weather History Date:

Tuesday, June 25, 2013

  Actual Average Record
Temperature  
Mean Temperature 76 °F -  
Max Temperature 80 °F 77 °F - ()
Min Temperature 73 °F 70 °F - ()
Cooling Degree Days 12    
Growing Degree Days 26 (Base 50)    
Moisture  
Dew Point 73 °F    
Average Humidity 89    
Maximum Humidity 100    
Minimum Humidity 74    
Precipitation  
Precipitation 0.08 in - - ()
Sea Level Pressure  
Sea Level Pressure 29.93 in    
Wind  
Wind Speed 5 mph ()    
Max Wind Speed 8 mph    
Max Gust Speed -    
Visibility 6.0 miles    
Events Rain    
T = Trace of Precipitation, MM = Missing Value Source: Averaged Metar Reports

Daily Weather History Graph

Daily Weather History Graph

Search for Another Location

Airport or City:

Trip Planner

Search our weather history database for the weather conditions in past years. The results will help you decide how hot, cold, wet, or windy it might be!

Date:

Astronomy

Jun. 25, 2013 Rise Set
Actual Time 6:14 AM +07 5:45 PM +07
Civil Twilight 5:51 AM +07 6:08 PM +07
Nautical Twilight 5:25 AM +07 6:34 PM +07
Astronomical Twilight 4:58 AM +07 7:00 PM +07
Moon 7:49 PM +07 (6/25) 7:42 AM +07 (6/25)
Length of Visible Light 12h 16m
Length of Day
11h 30m
Waning Gibbous, 95% of the Moon is Illuminated
Jun 25
Waning Gibbous
Jun 30
Last Quarter
Jul 8
New
Jul 16
First Quarter
Jul 23
Full

Hourly Weather History & Observations

Time (+07) Temp. Heat Index Dew Point Humidity Pressure Visibility Wind Dir Wind Speed Gust Speed Precip Events Conditions
12:00 AM 74 °F - 72 °F 94% 29.91 in - WSW 4.6 mph - -  
12:00 AM 73.4 °F - 73.4 °F 100% 29.95 in 6.2 mi WSW 4.6 mph - N/A   Scattered Clouds
1:00 AM 74 °F - 73 °F 94% 29.89 in - SW 4.6 mph - -  
1:00 AM 73.4 °F - 73.4 °F 100% 29.92 in 6.2 mi SW 4.6 mph - N/A   Unknown
2:00 AM 73.4 °F - 71.6 °F 94% 29.92 in 6.2 mi SW 3.5 mph - N/A   Unknown
3:00 AM 73.4 °F - 71.6 °F 94% 29.89 in 6.2 mi SW 2.3 mph - N/A   Unknown
4:00 AM 74 °F - 73 °F 95% 29.86 in - SSW 4.6 mph - -  
4:00 AM 73.4 °F - 73.4 °F 100% 29.89 in 6.2 mi SSW 4.6 mph - N/A   Scattered Clouds
5:00 AM 73.4 °F - 71.6 °F 94% 29.89 in 6.2 mi SSW 3.5 mph - N/A   Scattered Clouds
6:00 AM 74 °F - 72 °F 93% 29.88 in - SSW 3.5 mph - -  
6:00 AM 73.4 °F - 71.6 °F 94% 29.92 in 6.2 mi SSW 3.5 mph - N/A   Unknown
6:48 AM 75.2 °F - 73.4 °F 94% 29.92 in 6.2 mi SW 5.8 mph - N/A Rain Light Rain
6:51 AM 75.2 °F - 73.4 °F 94% 29.92 in 3.7 mi SSW 5.8 mph - N/A   Drizzle
7:00 AM 74 °F - 73 °F 94% 29.90 in - SSW 5.8 mph - -  
7:00 AM 75.2 °F - 73.4 °F 94% 29.92 in 3.7 mi SSW 5.8 mph - N/A   Drizzle
7:10 AM 75.2 °F - 73.4 °F 94% 29.95 in 6.2 mi South 5.8 mph - N/A Rain Light Rain Showers
7:19 AM 75.2 °F - 71.6 °F 89% 29.95 in 6.2 mi South 5.8 mph - N/A   Mostly Cloudy
8:00 AM 77.0 °F - 73.4 °F 89% 29.95 in 6.2 mi South 5.8 mph - N/A   Scattered Clouds
9:00 AM 78 °F - 71 °F 74% 29.94 in - South 8.1 mph - -  
9:00 AM 78.8 °F - 71.6 °F 78% 29.98 in 6.2 mi South 8.1 mph - N/A   Scattered Clouds
10:00 AM 79 °F - 72 °F 74% 29.93 in - SSE 6.9 mph - -  
10:00 AM 78.8 °F - 71.6 °F 78% 29.98 in 6.2 mi SSE 6.9 mph - N/A   Scattered Clouds
11:00 AM 78.8 °F - 73.4 °F 83% 29.98 in 6.2 mi SE 8.1 mph - N/A   Overcast
12:00 PM 79 °F - 73 °F 76% 29.92 in - SSE 8.1 mph - -   Overcast
12:00 PM 78.8 °F - 73.4 °F 83% 29.95 in 6.2 mi SSE 8.1 mph - N/A   Overcast
1:00 PM 80 °F - 74 °F 76% 29.89 in - SSE 8.1 mph - -  
1:00 PM 80.6 °F 85.4 °F 73.4 °F 79% 29.92 in 6.2 mi SSE 8.1 mph - N/A   Scattered Clouds
1:21 PM 78.8 °F - 73.4 °F 83% 29.92 in 6.2 mi South 8.1 mph - N/A   Mostly Cloudy
2:00 PM 78.8 °F - 73.4 °F 83% 29.92 in 6.2 mi SSE 6.9 mph - N/A   Mostly Cloudy
2:44 PM 78.8 °F - 73.4 °F 83% 29.92 in 6.2 mi SSE 8.1 mph - N/A   Scattered Clouds
2:52 PM 78.8 °F - 73.4 °F 83% 29.92 in 6.2 mi SSE 6.9 mph - N/A   Mostly Cloudy
3:00 PM 80 °F - 73 °F 75% 29.88 in - SSE 6.9 mph - -  
3:00 PM 80.6 °F 85.4 °F 73.4 °F 79% 29.92 in 6.2 mi SSE 6.9 mph - N/A   Mostly Cloudy
4:00 PM 79 °F - 74 °F 79% 29.88 in - SSE 6.9 mph - -  
4:00 PM 78.8 °F - 73.4 °F 83% 29.92 in 6.2 mi SSE 6.9 mph - N/A   Mostly Cloudy
4:23 PM 77.0 °F - 73.4 °F 89% 29.92 in 6.2 mi SSE 5.8 mph - N/A   Scattered Clouds
4:52 PM 77.0 °F - 73.4 °F 89% 29.92 in 6.2 mi SSE 6.9 mph - N/A   Mostly Cloudy
5:00 PM 77.0 °F - 73.4 °F 89% 29.92 in 6.2 mi SSE 6.9 mph - N/A   Overcast
5:24 PM 77.0 °F - 73.4 °F 89% 29.95 in 6.2 mi SSE 5.8 mph - N/A   Overcast
6:00 PM 76 °F - 73 °F 88% 29.92 in - South 3.5 mph - -   Overcast
6:00 PM 77.0 °F - 73.4 °F 89% 29.95 in 6.2 mi South 3.5 mph - N/A Rain Light Rain Showers
6:06 PM 75.2 °F - 73.4 °F 94% 29.95 in 6.2 mi South 4.6 mph - N/A Rain Light Rain Showers
6:34 PM 75.2 °F - 73.4 °F 94% 29.95 in 6.2 mi SSE 4.6 mph - N/A Rain Light Rain Showers
6:36 PM 75.2 °F - 73.4 °F 94% 29.95 in 6.2 mi South 4.6 mph - N/A Rain Light Rain Showers
6:42 PM 75.2 °F - 73.4 °F 94% 29.95 in 3.7 mi SSW 3.5 mph - N/A Rain Rain Showers
6:58 PM 75.2 °F - 73.4 °F 94% 29.95 in 6.2 mi South 3.5 mph - N/A Rain Light Rain Showers
7:00 PM 75 °F - 73 °F 92% 29.92 in - South 3.5 mph - -  
7:00 PM 75.2 °F - 73.4 °F 94% 29.95 in 6.2 mi South 3.5 mph - N/A   Mostly Cloudy
7:29 PM 75.2 °F - 73.4 °F 94% 29.95 in 6.2 mi South 2.3 mph - N/A   Mostly Cloudy
7:43 PM 75.2 °F - 73.4 °F 94% 29.95 in 6.2 mi South 2.3 mph - N/A   Mostly Cloudy
8:00 PM 75.2 °F - 73.4 °F 94% 29.98 in 6.2 mi SSE 2.3 mph - N/A   Mostly Cloudy
9:00 PM 75 °F - 74 °F 95% 29.94 in - SSE 5.8 mph - -   Overcast
9:00 PM 75.2 °F - 73.4 °F 94% 29.98 in 6.2 mi SSE 5.8 mph - N/A   Overcast
10:00 PM 75 °F - 74 °F 96% 29.94 in - SE 5.8 mph - -  
10:00 PM 75.2 °F - 73.4 °F 94% 29.98 in 6.2 mi SE 5.8 mph - N/A Rain Light Rain Showers
11:00 PM 75.2 °F - 73.4 °F 94% 29.95 in 6.2 mi SE 8.1 mph - N/A   Overcast